Temperature
8 7 7 8 9 10 10 11 11 13 15 15 14 15 16 17 18 18 19 20 20 20 20 20 20 19 19 18 17 16 15 15 14 14 13 13 13 13 12 12 12 12 12 11
7 6 8 10 10 10 10 10 10 12 14 14 14 14 16 17 17 18 19 20 20 20 20 20 20 20 19 18 17 16 16 15 15 15 15 14 14 13 13 12 12 12 12 11
7 8 9 9 9 9 9 9 10 11 12 13 13 13 14 16 17 18 19 19 20 20 21 21 20 20 19 18 18 17 16 16 15 15 14 13 12 12 12 12 12 12 12 12
7 9 9 9 9 9 8 10 10 11 10 10 11 11 13 15 16 17 18 19 19 20 21 21 20 20 19 19 18 17 16 16 15 15 14 13 13 13 14 14 13 13 12 12
7 8 8 8 9 10 9 11 10 10 9 9 10 10 12 15 15 17 17 18 19 20 20 20 20 20 19 19 18 18 17 16 15 15 14 14 14 15 14 14 13 13 12 12
7 9 8 9 9 9 10 10 10 9 8 8 9 10 11 14 16 17 18 18 19 19 20 20 20 20 20 19 18 18 17 16 15 14 14 14 15 14 14 13 13 13 12 12
6 7 8 8 8 8 9 7 7 7 7 8 10 11 11 15 17 17 18 18 19 19 19 19 20 20 19 19 18 18 17 16 15 14 14 14 15 15 14 15 14 13 12 12
4 6 8 8 8 7 8 7 7 7 8 9 11 11 13 15 16 17 18 19 19 19 19 19 19 19 19 19 18 18 17 16 15 15 14 14 14 14 14 14 14 14 14 14
4 5 7 8 9 8 7 7 8 8 8 8 10 12 14 15 15 16 17 18 18 19 19 19 19 19 19 18 18 18 17 16 16 15 15 14 14 14 14 14 13 13 14 13
3 4 6 7 8 8 7 7 7 6 7 8 10 11 13 14 14 15 16 16 17 18 18 18 18 18 18 18 18 17 17 17 16 15 15 14 14 14 14 13 13 13 13 13
3 3 4 6 6 6 7 7 6 6 7 8 9 12 15 15 15 15 15 16 17 18 18 18 18 18 18 18 17 17 16 16 16 15 15 14 14 14 13 13 13 12 12 12
3 3 3 5 6 6 6 6 6 6 6 8 9 11 15 14 15 15 15 16 17 17 17 17 17 17 17 17 17 16 16 16 15 15 15 14 14 13 13 13 12 12 12 12
3 2 2 4 5 5 5 5 5 5 6 7 8 11 14 13 14 14 15 16 16 16 16 16 16 16 16 16 16 16 15 15 15 15 15 14 14 13 13 13 12 12 12 11
4 2 2 2 3 3 4 5 5 5 5 6 8 10 11 12 12 13 14 14 15 15 15 15 15 15 15 15 15 15 15 15 15 15 15 14 14 13 13 13 12 12 12 11
3 2 2 3 4 5 5 5 5 5 6 6 8 9 10 11 11 12 12 13 13 13 13 14 14 14 14 14 14 14 14 14 14 14 14 14 14 13 13 12 12 12 11 11
2 1 2 3 5 5 5 6 6 6 6 7 7 8 10 11 11 11 11 12 12 12 12 12 13 13 13 13 13 14 14 14 14 14 14 13 13 13 12 12 12 11 11 10
1 1 1 2 4 4 4 5 6 6 6 6 7 7 8 9 9 10 10 10 10 10 11 11 12 12 13 13 13 14 14 14 13 13 13 13 13 13 12 12 11 11 10 10
1 1 1 1 2 2 4 6 6 6 6 6 6 7 7 8 9 9 9 9 9 9 10 10 11 11 12 12 13 13 13 13 13 13 13 13 13 12 12 11 11 11 10 10
3 1 1 1 1 3 5 5 5 5 5 5 5 6 6 7 9 9 8 8 8 9 9 10 11 11 11 12 12 13 12 12 12 12 12 12 12 12 11 11 10 10 10 10
3 2 1 1 1 3 4 5 5 5 4 4 5 5 5 6 6 7 7 7 8 8 9 10 10 11 11 11 12 12 12 12 12 12 12 12 12 12 11 11 10 10 10 9
1 1 0 0 1 3 4 5 5 4 3 4 4 4 4 4 5 5 6 6 7 8 8 9 10 10 11 11 11 11 11 11 12 12 12 12 11 11 11 10 10 9 9 9
1 0 0 1 1 2 4 4 3 3 4 4 4 4 4 5 5 5 5 6 7 7 8 9 9 10 10 10 11 11 11 11 11 11 11 11 11 10 10 10 9 9 9 9
2 2 1 1 2 4 5 4 4 4 4 4 4 4 4 4 4 4 5 5 6 6 7 8 9 9 10 10 10 11 11 11 11 11 11 10 10 10 10 9 9 9 8 8
3 3 3 2 3 4 5 5 4 4 4 4 4 4 4 4 4 4 4 5 5 6 7 7 8 8 9 9 10 10 11 11 11 10 10 10 10 9 9 9 9 9 8 8
2 2 2 2 3 4 4 5 4 4 4 4 4 4 4 4 4 4 4 4 5 5 6 7 7 8 8 9 9 9 10 10 10 10 9 9 9 9 8 8 8 8 8 8
2 2 1 1 3 3 3 4 4 4 4 3 3 3 3 3 3 3 4 4 5 5 6 6 7 8 8 8 9 9 9 10 10 9 9 9 8 8 8 8 7 6 7 7
Wind_Speed
9 10 16 21 22 21 20 20 21 20 17 18 22 24 21 18 16 16 16 17 17 16 15 15 16 16 17 17 19 21 19 18 16 14 13 13 12 11 9 8 12 15 15 15
12 18 22 20 20 22 23 23 23 18 17 17 18 22 19 18 18 15 14 15 16 16 16 16 16 16 18 19 20 21 22 20 19 16 14 12 11 9 9 8 10 14 15 15
19 16 16 19 21 22 24 23 22 19 16 15 14 18 20 16 18 17 16 15 14 16 17 17 17 17 17 18 21 21 22 21 20 17 12 11 9 8 9 11 11 11 14 15
15 18 18 18 20 21 21 20 20 19 16 10 12 11 15 17 18 20 19 17 16 15 15 15 16 17 18 18 19 20 21 21 21 19 17 18 16 13 13 13 11 11 13 13
12 13 16 20 21 20 16 15 17 16 14 13 13 10 10 15 19 21 20 19 18 16 15 15 16 17 18 18 19 19 19 21 20 20 20 19 14 12 10 10 13 14 13 12
18 16 13 15 15 16 13 11 12 11 9 14 17 14 9 13 19 20 21 20 18 17 15 14 14 15 16 17 18 18 19 19 20 21 21 20 18 16 15 14 15 14 11 11
13 14 12 9 9 11 11 8 6 8 9 11 12 13 11 11 15 16 16 18 19 17 16 14 13 14 16 18 19 19 20 20 20 22 22 21 20 19 18 16 16 14 12 11
7 9 7 7 9 8 12 12 9 6 7 7 11 13 11 14 12 11 12 12 14 16 16 16 15 14 14 17 19 20 21 19 21 22 22 20 19 16 13 15 14 15 13 13
6 8 8 8 8 8 7 11 9 6 7 6 6 8 12 11 12 13 11 11 14 15 15 15 14 14 15 16 18 21 21 18 19 21 20 19 19 17 15 14 13 13 11 12
5 9 9 7 5 8 7 5 5 7 6 7 8 11 9 10 13 13 12 12 10 11 12 12 12 13 14 15 15 16 18 19 17 19 19 17 18 17 15 14 14 14 14 13
5 6 7 6 5 6 6 8 6 5 6 5 5 6 7 8 10 11 12 12 11 10 10 11 10 11 12 13 15 15 15 14 16 18 17 16 16 15 14 13 14 14 13 14
3 4 7 9 7 3 4 4 5 5 6 6 6 6 3 3 3 6 8 8 9 9 9 9 9 9 11 13 14 15 15 14 14 15 15 15 14 14 14 13 13 13 14 14
4 3 5 5 1 1 1 4 5 5 5 6 8 7 5 6 6 3 2 4 5 6 7 7 8 9 10 12 13 13 14 14 12 13 14 15 14 15 15 14 13 13 13 13
5 4 5 7 8 6 8 9 8 7 6 7 10 11 10 8 7 5 4 2 2 4 5 7 8 8 8 10 11 12 12 12 12 12 14 15 15 15 14 13 13 13 13 13
3 5 8 13 14 13 13 13 11 12 12 10 12 13 12 9 7 5 3 4 3 2 3 5 7 8 8 9 10 10 11 11 12 12 12 13 13 13 13 13 12 12 12 12
3 5 8 12 13 12 14 13 12 13 13 15 16 14 10 9 7 5 4 4 3 2 1 2 4 7 9 9 10 10 10 11 12 13 12 12 12 13 13 13 12 12 12 12
3 3 4 7 10 11 9 8 9 9 9 10 12 11 11 10 9 6 5 3 3 3 1 2 3 4 7 9 9 10 11 11 11 12 12 12 13 13 13 13 13 13 12 12
8 6 4 5 7 7 5 4 5 7 6 5 8 9 10 11 9 4 6 6 5 4 3 1 1 2 4 6 8 8 10 11 11 12 12 12 13 14 13 13 13 12 11 11
10 7 4 4 6 9 6 4 5 5 3 4 7 9 11 13 8 2 9 8 6 5 4 2 1 1 4 7 9 10 10 11 11 12 13 13 14 14 14 14 13 11 11 10
7 7 5 5 5 5 3 7 8 4 2 5 7 8 10 10 5 5 10 10 8 7 5 3 1 2 4 7 9 10 10 11 12 12 13 13 13 14 14 14 12 11 11 11
4 5 8 8 7 6 5 7 6 1 3 6 7 8 8 5 6 8 10 9 8 6 6 4 1 3 4 7 9 10 10 10 10 11 12 12 13 13 13 12 11 13 12 12
4 4 5 6 7 6 4 3 1 3 5 6 6 7 8 8 9 9 9 8 8 7 5 4 1 1 3 6 9 9 10 10 10 11 12 13 13 12 12 14 12 13 14 14
5 6 4 5 6 5 4 3 3 3 6 7 6 8 9 9 9 10 9 9 7 6 5 4 1 1 3 4 7 9 9 12 12 12 13 13 14 13 13 14 14 12 12 11
6 6 6 7 8 8 8 6 4 5 7 8 8 8 8 9 9 9 9 8 7 6 5 4 2 2 3 4 5 7 10 13 14 14 14 14 14 13 12 10 10 11 11 11
7 6 8 11 11 10 9 8 7 7 8 9 9 9 8 9 9 9 8 8 7 6 5 4 2 3 3 4 5 7 11 14 15 14 14 14 13 14 12 10 8 9 7 11
10 10 10 11 9 9 10 9 8 9 10 10 10 10 8 8 9 9 8 7 6 6 5 4 3 2 3 5 6 8 10 14 16 15 14 12 12 12 13 13 12 15 13 16
Wind_Direction
230 227 228 226 228 239 245 247 247 248 240 235 237 240 238 235 238 233 224 221 219 216 208 199 194 188 180 176 174 175 175 176 173 174 176 177 179 178 176 176 178 178 177 176
244 239 241 241 239 243 247 250 254 259 253 243 245 247 242 235 231 234 233 225 219 213 209 201 194 188 182 179 176 176 178 179 179 181 182 179 173 175 176 175 182 184 182 179
242 247 246 243 239 242 245 246 249 251 256 253 256 253 243 236 234 229 232 232 225 216 209 201 195 190 183 181 179 180 180 181 183 178 173 168 166 169 179 186 189 189 186 183
256 253 251 249 243 238 245 244 250 253 254 250 234 250 236 228 229 227 225 225 225 223 214 203 195 192 186 183 180 180 180 181 183 178 178 177 181 185 189 186 185 185 188 186
258 255 246 248 247 242 247 247 246 249 252 256 240 246 243 221 226 223 220 220 219 219 217 209 198 191 188 182 179 180 180 182 182 182 184 184 187 189 179 176 181 187 191 189
266 266 254 251 249 247 252 254 254 247 244 247 235 231 248 221 224 222 216 216 214 212 215 215 201 188 185 181 178 179 180 183 183 184 186 188 188 184 179 181 186 188 190 191
275 261 244 241 245 238 228 217 218 218 220 236 222 226 240 229 227 223 218 213 211 207 208 211 203 189 184 180 179 180 182 185 185 186 189 192 192 189 187 185 186 185 187 192
280 276 244 231 226 224 220 213 217 219 219 233 217 225 237 232 238 231 223 218 209 205 204 206 202 190 182 180 180 181 184 187 187 188 192 193 192 192 192 187 185 188 191 191
285 281 290 278 250 215 220 221 232 262 280 263 232 234 242 223 229 235 232 222 212 206 202 200 196 187 180 180 181 183 185 188 189 189 190 192 192 192 192 187 184 186 186 184
274 287 292 289 266 221 223 230 213 212 231 239 237 235 234 204 212 221 223 223 214 203 199 195 194 190 183 180 180 180 185 189 188 188 190 193 193 192 189 185 184 183 182 180
290 275 292 288 250 233 221 216 226 221 235 232 240 238 227 216 202 211 219 219 213 207 198 193 192 187 178 173 176 178 183 186 187 187 187 187 188 187 185 185 183 180 179 178
289 279 279 274 263 258 236 227 218 233 243 239 249 261 278 262 218 210 219 216 210 206 195 187 181 177 173 173 176 178 181 185 186 184 182 183 181 180 182 183 180 177 177 178
293 287 301 299 238 36 284 251 238 255 264 248 239 253 319 350 354 344 297 239 207 193 180 172 169 170 172 171 173 175 178 180 180 177 177 178 179 180 182 180 177 175 175 174
303 250 253 274 294 295 286 273 249 237 244 258 251 268 303 329 339 344 341 331 176 165 170 171 168 167 167 166 167 171 173 172 170 169 172 177 180 180 179 175 173 172 172 172
320 273 277 284 288 284 275 270 259 244 241 247 265 272 284 304 319 332 356 13 26 137 166 174 170 165 164 162 162 162 165 166 164 166 171 174 173 170 168 167 167 165 165 166
305 283 293 287 286 288 281 270 261 254 247 251 267 275 290 312 324 343 1 18 21 46 117 162 172 166 166 161 158 157 158 160 161 164 166 163 163 163 162 161 159 157 158 157
244 261 287 283 296 301 274 259 250 244 237 244 256 272 310 318 322 340 1 11 18 6 359 170 167 168 163 158 156 157 158 155 158 160 159 158 158 158 157 155 155 157 157 154
228 241 258 279 292 257 258 325 294 254 237 267 279 298 307 307 301 360 26 6 356 348 337 301 190 170 158 148 145 145 149 153 155 155 156 156 155 155 153 152 155 155 154 154
217 216 235 261 272 276 282 322 318 279 260 336 316 319 324 321 302 337 9 351 341 340 332 299 230 164 155 148 143 142 148 149 152 156 157 157 156 154 153 153 153 148 145 145
203 204 217 249 267 270 327 342 325 293 255 345 332 333 338 340 315 319 340 342 343 347 342 336 42 109 144 149 143 146 153 154 159 158 156 153 153 153 152 150 145 140 140 139
203 214 220 235 253 269 322 338 351 338 297 326 334 336 341 328 300 312 325 332 336 337 333 337 90 149 162 152 148 153 156 162 157 147 144 145 147 146 143 139 137 135 133 131
216 218 224 225 239 256 332 357 9 282 305 321 327 327 323 314 313 318 325 328 334 334 336 337 356 156 158 154 152 154 159 151 141 139 139 140 139 138 137 134 134 135 134 131
224 217 227 226 245 282 288 288 275 288 305 312 315 314 315 314 315 319 322 324 325 328 328 323 310 180 160 158 155 156 153 143 139 136 135 134 132 133 136 137 137 137 136 135
258 252 257 265 266 284 292 291 285 289 294 301 305 303 305 306 306 310 315 317 320 319 314 308 279 192 179 165 154 152 147 142 139 138 136 134 131 130 128 129 135 138 141 139
260 274 270 271 277 283 276 277 285 293 301 303 303 300 299 304 303 300 303 307 308 309 302 297 256 213 183 154 145 143 145 141 138 137 136 132 129 126 119 108 107 124 131 145
246 250 252 260 268 277 286 291 297 299 297 296 295 295 293 293 296 297 296 296 294 294 291 287 266 221 171 151 146 146 147 144 141 140 138 134 131 126 122 113 94 76 96 106
Height
1419 1420 1415 1411 1412 1410 1408 1407 1405 1401 1398 1400 1398 1396 1396 1398 1398 1398 1400 1402 1406 1409 1414 1418 1423 1428 1433 1438 1443 1448 1453 1458 1464 1469 1473 1478 1482 1487 1491 1495 1499 1503 1506 1510
1415 1411 1405 1405 1405 1406 1405 1406 1403 1400 1396 1395 1394 1391 1389 1389 1390 1392 1393 1395 1398 1402 1407 1410 1415 1420 1425 1431 1436 1441 1446 1451 1457 1461 1466 1472 1477 1482 1487 1491 1495 1499 1502 1506
1407 1400 1400 1400 1401 1402 1401 1402 1400 1399 1395 1392 1394 1390 1385 1381 1382 1385 1387 1388 1391 1394 1398 1402 1407 1412 1417 1423 1428 1434 1439 1444 1450 1456 1463 1469 1475 1479 1483 1486 1489 1493 1498 1501
1399 1396 1396 1395 1394 1396 1396 1394 1396 1396 1398 1396 1394 1391 1379 1375 1375 1375 1377 1380 1383 1386 1390 1395 1399 1404 1409 1415 1421 1427 1433 1438 1444 1450 1455 1460 1464 1468 1472 1477 1483 1488 1492 1496
1395 1391 1391 1391 1389 1389 1389 1390 1392 1393 1396 1396 1391 1392 1376 1368 1368 1366 1368 1371 1374 1379 1383 1387 1391 1396 1402 1408 1414 1420 1426 1432 1438 1443 1448 1453 1458 1462 1468 1473 1478 1482 1487 1491
1391 1387 1386 1384 1384 1386 1386 1389 1389 1390 1395 1395 1385 1387 1374 1361 1357 1355 1357 1361 1365 1371 1376 1380 1385 1390 1395 1401 1407 1413 1419 1425 1431 1436 1441 1446 1451 1456 1462 1466 1471 1476 1480 1484
1388 1382 1380 1382 1382 1383 1385 1391 1395 1393 1390 1383 1372 1374 1364 1348 1345 1345 1347 1351 1356 1362 1368 1373 1377 1382 1387 1392 1398 1405 1411 1418 1424 1429 1434 1439 1445 1450 1454 1459 1464 1468 1473 1477
1392 1383 1375 1375 1377 1379 1380 1384 1388 1385 1380 1371 1362 1362 1350 1341 1339 1339 1341 1344 1348 1353 1358 1364 1369 1374 1379 1384 1390 1397 1403 1410 1416 1422 1427 1433 1439 1444 1449 1454 1458 1462 1466 1470
1397 1385 1375 1373 1372 1375 1377 1378 1377 1380 1375 1372 1359 1348 1339 1334 1335 1336 1336 1337 1340 1345 1350 1355 1361 1366 1371 1377 1382 1388 1395 1402 1409 1414 1421 1426 1432 1437 1443 1448 1453 1457 1461 1465
1400 1393 1378 1373 1371 1370 1374 1374 1377 1381 1379 1372 1357 1347 1338 1331 1331 1330 1332 1333 1334 1338 1343 1348 1353 1359 1364 1369 1375 1381 1388 1394 1401 1408 1414 1419 1425 1431 1437 1442 1447 1451 1455 1460
1398 1396 1383 1376 1372 1371 1372 1375 1375 1375 1371 1366 1357 1342 1321 1321 1322 1324 1325 1327 1330 1334 1338 1342 1347 1352 1357 1363 1369 1374 1381 1388 1395 1401 1407 1413 1419 1425 1431 1436 1441 1445 1450 1455
1397 1396 1389 1378 1371 1370 1371 1372 1375 1377 1370 1360 1355 1341 1317 1317 1316 1317 1319 1321 1325 1329 1333 1338 1342 1347 1351 1357 1362 1367 1374 1381 1387 1394 1400 1406 1413 1419 1425 1430 1435 1440 1445 1450
1397 1397 1394 1379 1376 1375 1375 1374 1375 1376 1372 1362 1355 1340 1320 1318 1317 1317 1318 1319 1322 1325 1329 1333 1337 1341 1346 1351 1356 1362 1368 1374 1381 1388 1394 1400 1406 1412 1418 1424 1429 1435 1440 1445
1395 1396 1396 1391 1383 1381 1378 1374 1371 1374 1372 1363 1351 1339 1330 1326 1324 1321 1320 1320 1320 1323 1326 1330 1333 1337 1341 1346 1352 1357 1362 1369 1376 1382 1388 1394 1400 1406 1412 1418 1424 1429 1435 1440
1395 1394 1390 1384 1377 1374 1371 1368 1366 1366 1364 1362 1348 1341 1336 1331 1329 1326 1323 1322 1322 1323 1325 1328 1331 1334 1338 1343 1348 1353 1359 1365 1371 1377 1383 1388 1395 1401 1408 1413 1419 1425 1430 1435
1395 1395 1390 1382 1372 1368 1364 1360 1359 1358 1356 1353 1347 1342 1336 1333 1331 1327 1326 1325 1325 1325 1326 1327 1330 1333 1336 1340 1344 1350 1355 1360 1367 1372 1378 1384 1391 1397 1403 1408 1414 1420 1426 1431
1395 1396 1393 1384 1372 1367 1363 1354 1352 1352 1351 1350 1348 1343 1338 1336 1333 1331 1330 1328 1327 1327 1327 1328 1329 1331 1334 1337 1341 1346 1352 1357 1363 1368 1374 1380 1387 1392 1398 1404 1410 1416 1421 1427
1391 1393 1393 1386 1379 1378 1358 1349 1347 1346 1347 1349 1346 1342 1339 1337 1333 1332 1332 1331 1330 1329 1328 1328 1329 1330 1333 1336 1341 1345 1350 1355 1360 1365 1371 1377 1382 1388 1394 1400 1406 1412 1417 1423
1381 1387 1389 1386 1379 1365 1353 1350 1350 1347 1347 1349 1346 1343 1339 1335 1331 1330 1331 1332 1331 1330 1329 1329 1329 1330 1332 1335 1339 1343 1348 1353 1357 1362 1368 1373 1379 1384 1390 1396 1402 1408 1414 1419
1375 1379 1386 1384 1379 1365 1354 1349 1346 1345 1349 1349 1346 1344 1342 1338 1336 1334 1333 1331 1330 1329 1329 1328 1329 1330 1332 1335 1338 1342 1346 1351 1355 1360 1365 1370 1376 1382 1387 1393 1400 1405 1411 1417
1377 1380 1382 1380 1375 1361 1354 1350 1346 1352 1354 1349 1347 1345 1344 1342 1342 1339 1334 1332 1330 1329 1329 1328 1329 1330 1332 1334 1338 1341 1345 1349 1354 1358 1363 1369 1374 1380 1386 1392 1398 1403 1409 1415
1374 1377 1376 1374 1373 1364 1353 1350 1354 1354 1350 1348 1346 1344 1343 1341 1339 1336 1334 1331 1329 1328 1327 1328 1328 1329 1331 1334 1337 1339 1343 1347 1352 1357 1362 1367 1373 1379 1384 1390 1396 1402 1407 1413
1367 1367 1367 1367 1363 1355 1352 1351 1350 1350 1349 1347 1345 1343 1341 1339 1336 1334 1331 1329 1328 1327 1327 1327 1327 1328 1330 1333 1335 1338 1342 1346 1350 1355 1360 1366 1371 1377 1383 1389 1394 1400 1405 1410
1362 1360 1360 1358 1353 1351 1349 1349 1348 1347 1346 1344 1343 1341 1339 1336 1334 1332 1329 1327 1326 1325 1325 1326 1326 1327 1329 1331 1334 1337 1340 1344 1348 1353 1359 1364 1370 1376 1382 1388 1394 1398 1403 1408
1360 1359 1357 1355 1351 1349 1346 1346 1345 1344 1343 1341 1339 1338 1336 1333 1331 1329 1327 1325 1324 1324 1323 1323 1324 1325 1327 1329 1332 1335 1338 1342 1346 1352 1357 1363 1368 1374 1380 1386 1393 1398 1403 1408
1354 1355 1355 1351 1348 1347 1343 1342 1341 1340 1339 1337 1335 1333 1331 1330 1327 1325 1324 1322 1321 1321 1320 1320 1321 1322 1324 1327 1330 1333 1337 1340 1344 1349 1355 1361 1366 1372 1378 1384 1391 1398 1404 1409